Location: Dal�� Lhota
(48.7500°N, 14.0167°E)
Time: 21:44:36
(UTC+00:00)

NOSS 3-2 (A) - Pass Details

Date: 24 September 2020
Orbit: 795 x 1413 km, 63.4° (Epoch: 02 October)

Event Time Altitude Azimuth Distance (km) Brightness Sun altitude
Rises 17:19:07 0° 317° (NW) 3,909 7.4 -4.5°
Reaches altitude 10° 17:21:38 10° 319° (NW) 3,032 6.8 -4.9°
Maximum altitude 17:29:03 84° 48° (NE) 1,274 4.1 -6.1°
Drops below altitude 10° 17:37:29 10° 137° (SE) 3,421 5.9 -7.5°
Sets 17:40:29 0° 138° (SE) 4,434 6.5 -8.0°
